Location: Newark
(44.6768°N, 22.5302°E)
Time: 13:47:34
(UTC+00:00)

AO-92 - Pass Details

Date: 30 June 2022
Orbit: 469 x 481 km, 97.4° (Epoch: 17 August)

Event Time Altitude Azimuth Distance (km) Brightness Sun altitude
Exits shadow 20:09:42 28° 130° (SE) 933 ? -14.6°
Maximum altitude 20:11:12 46° 73° (ENE) 651 ? -14.8°
Drops below altitude 10° 20:14:39 10° 359° (N) 1,667 ? -15.1°
Sets 20:16:46 0° 354° (N) 2,555 ? -15.3°
